Location: Medoc Mountain State Park
(36.2578°N, 77.8786°W)
Time: 07:44:23
(UTC-04:00)

Daily predictions for brighter satellites

Satellite Brightness Start Highest point End
(mag) Time Altitude Azimuth Time Altitude Azimuth Time Altitude Azimuth
ALOS 3.0 20:05:23 10° SE 20:09:35 34° ENE 20:13:47 10° N
Cosmos 2208 Rocket 4.1 20:05:07 10° S 20:10:21 65° ESE 20:15:41 10° NNE
Cosmos 2369 3.8 20:06:01 10° S 20:11:30 55° ESE 20:17:04 10° NNE
Spot 2 Rocket 3.5 20:07:08 10° SSE 20:12:14 86° ENE 20:17:20 10° NNW
Cosmos 1980 Rocket 3.9 20:11:42 10° ESE 20:13:41 12° E 20:15:39 10° ENE
Cosmos 1975 4.1 20:11:44 10° SE 20:14:55 22° E 20:18:05 10° NE
H-2A R/B 3.8 20:12:38 10° SE 20:15:59 28° ENE 20:19:22 10° NNE
NOSS 7 (H) 4.4 20:13:29 10° SSW 20:16:50 58° ESE 20:20:07 10° NE
CZ-4B DEB 3.1 20:17:08 10° SSE 20:20:18 49° ENE 20:23:29 10° N
Helios 1B rocket 3.2 20:16:32 10° N 20:20:35 57° WNW 20:24:36 10° SSW
Lacrosse 5 rocket 2.3 20:19:51 10° NNW 20:23:04 27° NE 20:25:57 11° E
USA 186 2.9 20:21:11 10° SE 20:23:48 24° ENE 20:26:17 10° NNE
Cosmos 1570 Rocket 4.1 20:19:33 10° SSW 20:24:52 84° WNW 20:30:10 10° NNE
Okean 2 3.3 20:22:30 10° N 20:26:41 72° E 20:30:48 10° SSE
Meteor 1-23 Rocket 4.4 20:21:47 10° N 20:27:28 84° W 20:33:11 10° S
Meteor 2-16 Rocket 4.4 20:21:37 10° S 20:27:41 81° E 20:33:46 10° N
Iridium 4 Rocket 4.4 20:23:48 10° NNE 20:27:53 25° E 20:31:40 10° SE
OTV 4 0.3 20:28:51 10° WNW 20:31:49 84° SSW 20:34:01 16° ESE
Meteor 1-12 Rocket 4.4 20:29:02 10° SSE 20:34:32 51° E 20:40:10 10° NNE
FENGYUN 3A 3.7 20:30:08 10° SSE 20:35:24 64° ENE 20:40:42 10° N
CZ-2D R/B 3.3 20:32:33 10° SSE 20:36:20 57° ENE 20:40:09 10° N
FengYun 1-2 T 4.4 20:32:42 10° SSE 20:38:21 82° WSW 20:43:59 10° NNW
Cosmos 1656 3.8 20:32:58 10° S 20:38:24 51° ESE 20:43:47 10° NNE
Hubble Space Telescope 2.9 20:39:07 10° SW 20:41:40 16° SSW 20:44:14 10° SSE
Helios 1A 4.4 20:38:55 10° S 20:42:49 40° W 20:46:47 10° NNW
Cosmos 2227 Rocket 2.2 20:39:11 10° NNW 20:44:52 73° ENE 20:50:29 10° SSE
Tiangong 1 3.0 20:42:23 10° NW 20:44:58 23° N 20:47:24 11° ENE
Cosmos 1605 Rocket 4.0 20:39:26 10° S 20:45:47 79° E 20:52:04 10° N
Cosmos 1500 3.8 20:46:05 12° SSE 20:49:11 33° E 20:52:35 10° NNE
ERS-1 Rocket 3.8 20:48:08 18° ESE 20:51:03 32° ENE 20:55:29 10° N
Cosmos 1939 Rocket 4.3 20:49:57 19° E 20:51:10 22° ENE 20:54:25 10° NNE
Lacrosse 5 3.3 20:50:00 10° NNW 20:54:12 25° NE 20:56:52 17° E
CZ-4B DEB 4.5 20:50:42 10° SSE 20:54:20 85° ENE 20:57:58 10° N
Cosmos 2100 Rocket 4.5 20:48:56 10° SSE 20:54:38 37° E 21:00:18 10° NNE
Cosmos 1461 2.8 20:53:11 10° NNW 20:57:13 77° WSW 20:59:59 18° SSE
DELTA 2 R/B (1) 3.6 20:52:28 10° WNW 20:58:03 76° NNE 21:01:40 22° E
Cosmos 1346 Rocket 3.5 20:54:36 10° NNW 20:58:28 54° W 21:02:22 10° S
Cosmos 2082 3.7 20:54:17 10° NNW 20:59:55 89° WSW 21:05:00 13° SSE
Cosmos 2297 Rocket 2.2 20:54:29 10° NNW 21:00:09 70° ENE 21:04:20 18° SSE
SPOT 5 4.4 21:00:31 18° E 21:01:25 19° ENE 21:04:48 10° NNE
Cosmos 2061 Rocket 4.5 20:55:50 10° SSE 21:01:36 39° E 21:07:19 10° NNE
Cosmos 1763 Rocket 4.4 21:01:52 25° ESE 21:02:32 25° E 21:06:40 10° NE
H-2A R/B 3.5 21:03:38 19° ENE 21:03:47 19° ENE 21:06:42 10° NNE
Cosmos 1898 Rocket 3.9 21:00:17 10° N 21:05:22 45° ENE 21:07:48 27° SE
Cosmos 1626 Rocket 3.4 21:05:17 10° N 21:09:42 87° E 21:13:07 16° S
Cosmos 1515 3.6 21:11:24 10° N 21:15:15 72° E 21:16:39 37° SSE
Cosmos 468 Rocket 3.8 21:13:00 10° SSW 21:18:07 83° ESE 21:23:15 10° NNE
Cosmos 1602 Rocket 3.7 21:14:34 10° N 21:19:01 73° W 21:22:29 16° S
RESURS DK-1 3.2 21:16:30 10° N 21:20:16 33° ENE 21:20:28 32° ENE
CZ-4 DEB 2.5 21:22:56 79° E 21:22:59 79° ENE 21:26:07 10° N
SJ-11-01 4.2 21:20:47 31° SSE 21:22:59 74° ENE 21:27:40 10° N
Cosmos 2084 3.5 21:19:06 10° NNW 21:23:09 57° NE 21:23:56 48° E
deb Chang Zheng 4 4.0 21:19:14 10° NNE 21:23:15 40° E 21:23:15 40° E
Cosmos 841 Rocket 3.9 21:24:56 37° E 21:24:56 37° E 21:29:42 10° NE
Cosmos 1743 2.8 21:26:38 54° E 21:26:38 54° E 21:30:21 10° NNE
Cosmos 1459 Rocket 3.8 21:20:59 11° S 21:26:40 65° E 21:32:42 10° NNE
Cosmos 1814 Rocket 3.9 21:23:12 10° SSW 21:28:33 87° ESE 21:33:53 10° NNE
Cosmos 220 Rocket 4.3 21:25:56 10° NNW 21:30:05 59° WSW 21:31:56 30° S
Cosmos 1697 Rocket 2.9 21:28:13 10° SSW 21:33:51 72° WNW 21:39:30 10° NNE
Cosmos 1066 Rocket 4.2 21:29:33 10° N 21:35:16 87° E 21:38:16 30° S
OAO 2 Rocket 3.2 21:32:22 10° W 21:37:24 79° S 21:38:28 56° ESE
SL-16 R/B 4.2 21:46:17 13° NE 21:46:17 13° NE 21:46:59 10° NE
Cosmos 1606 Rocket 3.6 21:50:20 68° NE 21:50:20 68° NE 21:54:18 10° N
ARGOS 4.1 21:53:32 32° NE 21:53:32 32° NE 21:57:40 10° N
ASTEX 1 3.5 21:48:17 10° NNE 21:52:42 56° ENE 21:52:42 56° ENE
Cosmos 1980 Rocket 2.3 21:51:13 10° SSW 21:56:52 77° WNW 22:02:36 10° NNE
Cosmos 1802 Rocket 4.1 21:55:57 19° SSW 22:00:42 78° W 22:07:09 10° N
Envisat 3.2 22:00:26 51° SSW 22:01:32 66° WSW 22:06:36 10° NNW
SL-08 R/B 4.3 22:00:47 57° SSE 22:02:03 75° E 22:08:14 10° N
Lacrosse 5 rocket 3.0 21:59:13 10° WNW 22:01:42 23° WSW 22:01:42 23° WSW
MetOp-B 4.0 22:07:39 74° ENE 22:07:39 74° ENE 22:12:51 10° N
Cosmos 1937 Rocket 3.7 22:03:26 10° NNW 22:08:40 64° WSW 22:09:16 59° SW
Cosmos 1726 Rocket 4.4 22:14:23 48° NNW 22:14:23 48° NNW 22:17:44 10° N
Cosmos 2016 Rocket 4.1 22:11:10 38° SSW 22:13:38 73° W 22:19:49 10° N
H-2A R/B 3.8 22:17:51 20° NNE 22:17:51 20° NNE 22:19:52 10° NNE
Meteor 1-15 Rocket 4.4 22:19:19 67° NE 22:19:19 67° NE 22:24:30 10° NNE
Cosmos 990 Rocket 4.2 22:15:57 10° NNW 22:20:53 66° W 22:20:53 66° W
Tiangong 1 4.4 22:18:53 10° NW 22:19:22 13° NW 22:19:22 13° NW
Cosmos 2263 Rocket 3.8 22:22:27 10° N 22:25:29 22° NE 22:25:29 22° NE
Cosmos 2322 Rocket 3.5 22:32:37 29° NNE 22:32:37 29° NNE 22:35:15 10° NNE
Cosmos 2098 Rocket 4.2 22:29:39 52° SSW 22:31:19 71° W 22:37:20 10° N
SPOT 1/Viking Rocket 4.2 22:36:07 51° NNW 22:36:07 51° NNW 22:40:00 10° NNW
Lacrosse 5 2.9 22:32:28 10° NW 22:36:04 41° WNW 22:36:04 41° WNW
SPOT 5 4.0 22:39:47 42° W 22:39:47 42° W 22:43:50 10° NNW
H-2A R/B 4.0 22:40:47 24° WNW 22:40:47 24° WNW 22:43:11 10° NW
Tsikada Rocket 4.3 22:45:28 10° NNW 22:51:23 65° WNW 22:51:23 65° WNW
USA 215 3.9 23:03:14 47° NNE 23:03:14 47° NNE 23:08:56 10° NW
Terra 4.1 23:11:26 20° N 23:11:26 20° N 23:12:55 10° N
Milstar 3 Cent rocket 4.4 23:08:42 10° W 23:22:31 41° SW 23:22:31 41° SW
SL-16 R/B 3.9 23:28:06 30° NNW 23:28:06 30° NNW 23:31:29 10° N
